Weather History for Kars, Turkey

Change the Weather History Date:

Friday, November 1, 2013

  Actual Average Record
Temperature  
Mean Temperature 40 °F -  
Max Temperature 59 °F 43 °F - ()
Min Temperature 21 °F 24 °F - ()
Degree Days  
Heating Degree Days 25    
Moisture  
Dew Point 22 °F    
Average Humidity 55    
Maximum Humidity 86    
Minimum Humidity 9    
Precipitation  
Precipitation 0.00 in 0.03 in - ()
Sea Level Pressure  
Sea Level Pressure 30.33 in    
Wind  
Wind Speed 2 mph ()    
Max Wind Speed 12 mph    
Max Gust Speed -    
Visibility 6.2 miles    
Events      
T = Trace of Precipitation, MM = Missing Value Source: Averaged Metar Reports

Daily Weather History Graph

Daily Weather History Graph

Search for Another Location

Airport:

Trip Planner

Search our weather history database for the weather conditions in past years. The results will help you decide how hot, cold, wet, or windy it might be!

Date:

Astronomy

Nov. 01, 2013 Rise Set
Actual Time 5:37 AM EET 4:04 PM EET
Civil Twilight 5:09 AM EET 4:32 PM EET
Nautical Twilight 4:36 AM EET 5:04 PM EET
Astronomical Twilight 4:05 AM EET 5:36 PM EET
Moon 3:05 AM EET (11/1) 2:44 PM EET (11/1)
Length of Visible Light 11h 23m
Length of Day
10h 26m
Waning Crescent, 6% of the Moon is Illuminated
Nov 1
Waning Crescent
Nov 3
New
Nov 10
First Quarter
Nov 17
Full
Nov 25
Last Quarter

Hourly Weather History & Observations

Time (EET) Temp. Windchill Dew Point Humidity Pressure Visibility Wind Dir Wind Speed Gust Speed Precip Events Conditions
12:50 AM 24.8 °F - 19.4 °F 80% 30.33 in - Calm Calm - N/A   Clear
1:50 AM 24.8 °F - 19.4 °F 80% 30.33 in - NW 2.3 mph - N/A   Clear
2:50 AM 24.8 °F - 19.4 °F 80% 30.33 in - Calm Calm - N/A   Clear
3:50 AM 21.2 °F 16.4 °F 17.6 °F 86% 30.33 in - NW 3.5 mph - N/A   Clear
4:50 AM 23.0 °F - 19.4 °F 86% 30.33 in - Calm Calm - N/A   Clear
5:50 AM 24.8 °F - 19.4 °F 80% 30.33 in - Calm Calm - N/A   Clear
6:50 AM 30.2 °F - 23.0 °F 75% 30.36 in - Calm Calm - N/A   Clear
7:50 AM 33.8 °F - 23.0 °F 65% 30.36 in - Calm Calm - N/A   Clear
8:00 AM 34 °F - 22 °F 50%  in 6 mi Calm Calm - -  
8:50 AM 41.0 °F - 24.8 °F 53% 30.33 in - Variable 1.2 mph - N/A   Clear
9:50 AM 51.8 °F - 24.8 °F 35% 30.33 in - Calm Calm - N/A   Clear
10:50 AM 55.4 °F - 21.2 °F 26% 30.33 in 6.2 mi Variable 2.3 mph - N/A   Scattered Clouds
11:50 AM 57.2 °F - 17.6 °F 21% 30.30 in 6.2 mi Variable 1.2 mph - N/A   Scattered Clouds
12:50 PM 57.2 °F - 21.2 °F 25% 30.30 in 6.2 mi SSE 3.5 mph - N/A   Scattered Clouds
1:50 PM 59.0 °F - 21.2 °F 23% 30.30 in 6.2 mi East 11.5 mph - N/A   Scattered Clouds
2:00 PM 61 °F - 17 °F 9%  in 6 mi East 11.5 mph - -   Scattered Clouds
2:50 PM 55.4 °F - 21.2 °F 26% 30.30 in 6.2 mi ENE 10.4 mph - N/A   Scattered Clouds
3:50 PM 51.8 °F - 24.8 °F 35% 30.30 in 6.2 mi East 8.1 mph - N/A   Scattered Clouds
4:50 PM 44.6 °F 41.4 °F 24.8 °F 46% 30.30 in 6.2 mi SE 5.8 mph - N/A   Scattered Clouds
5:50 PM 42.8 °F - 23.0 °F 46% 30.30 in 6.2 mi NE 1.2 mph - N/A   Scattered Clouds
6:50 PM 37.4 °F 32.1 °F 23.0 °F 56% 30.33 in 6.2 mi NNW 6.9 mph - N/A   Scattered Clouds
7:50 PM 37.4 °F 34.9 °F 23.0 °F 56% 30.33 in - Variable 3.5 mph - N/A   Clear
8:00 PM 37 °F - 21 °F 40%  in 6 mi NE 3.5 mph - -   Partly Cloudy
8:50 PM 33.8 °F 30.8 °F 24.8 °F 70% 30.33 in 6.2 mi ENE 3.5 mph - N/A   Scattered Clouds
9:50 PM 33.8 °F 30.8 °F 24.8 °F 70% 30.33 in 6.2 mi NE 3.5 mph - N/A   Partly Cloudy
10:50 PM 32.0 °F - 24.8 °F 75% 30.36 in - Calm Calm - N/A   Clear
11:50 PM 26.6 °F - 21.2 °F 80% 30.36 in - Calm Calm - N/A   Clear